This is the latest recevied weather packets stored in our database for station/object IK2ILW-4. If no packets are shown the sender has not sent any weather packets the latest 10 day(s).
| Time | Temp. | Humidity | Pressure | Rain* | Wind** | Luminosity | Snow |
|---|---|---|---|---|---|---|---|
| 1777782756 | 10° C | 63% | 1021.5 hPa | 0 mm | - | 14 W/m² | - |
| 1777782458 | 9.44° C | 61% | 1021.4 hPa | 0 mm | - | 12 W/m² | - |
| 1777782158 | 10° C | 63% | 1021.4 hPa | 0 mm | - | 11 W/m² | - |
| 1777781857 | 10° C | 64% | 1021.4 hPa | 0 mm | - | 7 W/m² | - |
| 1777781553 | 10° C | 64% | 1021.2 hPa | 0 mm | - | 5 W/m² | - |
| 1777781269 | 10° C | 64% | 1021.2 hPa | 0 mm | - | 0 W/m² | - |
| 1777780965 | 10° C | 63% | 1021.2 hPa | 0 mm | - | 0 W/m² | - |
| 1777780666 | 10° C | 62% | 1021.4 hPa | 0 mm | - | 0 W/m² | - |
| 1777780365 | 10° C | 62% | 1021.4 hPa | 0 mm | - | 0 W/m² | - |
| 1777780061 | 9.44° C | 63% | 1021.4 hPa | 0 mm | - | 0 W/m² | - |
| 1777779757 | 9.44° C | 62% | 1021.5 hPa | 0 mm | - | 0 W/m² | - |
| 1777779457 | 10° C | 62% | 1021.5 hPa | 0 mm | - | 0 W/m² | - |
| 1777779157 | 10° C | 62% | 1021.5 hPa | 0 mm | - | 0 W/m² | - |
| 1777778857 | 9.44° C | 62% | 1021.7 hPa | 0 mm | - | 0 W/m² | - |
| 1777778556 | 9.44° C | 63% | 1021.7 hPa | 0 mm | - | 0 W/m² | - |
| 1777778256 | 9.44° C | 62% | 1021.7 hPa | 0 mm | - | 0 W/m² | - |
| 1777777971 | 9.44° C | 62% | 1021.7 hPa | 0 mm | - | 0 W/m² | - |
| 1777777667 | 9.44° C | 62% | 1021.7 hPa | 0 mm | - | 0 W/m² | - |
| 1777777360 | 9.44° C | 63% | 1021.7 hPa | 0 mm | - | 0 W/m² | - |
| 1777777056 | 9.44° C | 63% | 1021.8 hPa | 0 mm | - | 0 W/m² | - |
| 1777776756 | 10° C | 60% | 1021.8 hPa | 0 mm | - | 0 W/m² | - |
| 1777776455 | 10.56° C | 59% | 1021.8 hPa | 0 mm | - | 0 W/m² | - |
| 1777776154 | 10° C | 59% | 1021.8 hPa | 0 mm | - | 0 W/m² | - |
| 1777775869 | 10° C | 59% | 1021.8 hPa | 0 mm | - | 0 W/m² | - |
| 1777775564 | 10° C | 60% | 1021.8 hPa | 0 mm | - | 0 W/m² | - |
* Rain since midnight (hover to see other rain measurements)
** Current wind speed in m/s (hover to see current wind gust speed)